Weather History for KSXT - January, 2013

Change the Weather History Date:

Wednesday, January 30, 2013

  Actual Average Record
Temperature  
Mean Temperature 33 °F -  
Max Temperature 36 °F 39 °F 55 °F (2009)
Min Temperature 30 °F 30 °F 21 °F (2002)
Degree Days  
Heating Degree Days 32    
Moisture  
Dew Point 32 °F    
Average Humidity 94    
Maximum Humidity 100    
Minimum Humidity 87    
Precipitation  
Precipitation 0.00 in - - ()
Sea Level Pressure  
Sea Level Pressure 30.46 in    
Wind  
Wind Speed 3 mph (NE)    
Max Wind Speed 7 mph    
Max Gust Speed -    
Visibility 4 miles    
Events Fog    
Averages and records for this station are not official NWS values.
T = Trace of Precipitation, MM = Missing Value Source: NWS Daily Summary

Daily Weather History Graph

Daily Weather History Graph

Search for Another Location

Airport or City:

Trip Planner

Search our weather history database for the weather conditions in past years. The results will help you decide how hot, cold, wet, or windy it might be!

Date:

Astronomy

Jan. 30, 2013 Rise Set
Actual Time 7:29 AM PST 5:24 PM PST
Civil Twilight 6:59 AM PST 5:54 PM PST
Nautical Twilight 6:25 AM PST 6:28 PM PST
Astronomical Twilight 5:52 AM PST 7:01 PM PST
Moon 9:36 PM PST (1/30) 8:53 AM PST (1/30)
Length of Visible Light 10h 55m
Length of Day
9h 55m
Waning Gibbous, 87% of the Moon is Illuminated
Jan 30
Waning Gibbous
Feb 3
Last Quarter
Feb 9
New
Feb 17
First Quarter
Feb 25
Full

Hourly Weather History & Observations

Time (PST) Temp. Windchill Dew Point Humidity Pressure Visibility Wind Dir Wind Speed Gust Speed Precip Events Conditions
12:56 AM 33.1 °F 30.0 °F 30.0 °F 89% 30.50 in 10.0 mi ENE 3.5 mph - N/A   Clear
1:56 AM 32.0 °F 27.5 °F 30.0 °F 92% 30.51 in 10.0 mi ENE 4.6 mph - N/A   Clear
2:32 AM 30.2 °F - 30.2 °F 100% 30.43 in 1.8 mi Calm Calm - N/A   Partly Cloudy
2:34 AM 30.2 °F 26.7 °F 30.2 °F 100% 30.43 in 1.0 mi ENE 3.5 mph - N/A   Mist
2:44 AM 32.0 °F 26.4 °F 30.2 °F 93% 30.43 in 2.0 mi ENE 5.8 mph - N/A   Partly Cloudy
2:51 AM 32.0 °F 26.4 °F 30.2 °F 93% 30.43 in 10.0 mi NE 5.8 mph - N/A   Partly Cloudy
2:56 AM 30.9 °F 25.2 °F 30.0 °F 96% 30.51 in 10.0 mi NNE 5.8 mph - N/A   Partly Cloudy
3:56 AM 30.9 °F 26.2 °F 30.0 °F 96% 30.51 in 10.0 mi East 4.6 mph - N/A   Clear
4:22 AM 30.2 °F - 28.4 °F 93% 30.43 in 1.8 mi Calm Calm - N/A   Partly Cloudy
4:24 AM 30.2 °F - 28.4 °F 93% 30.43 in 0.8 mi Calm Calm - N/A   Mist
4:35 AM 30.2 °F - 28.4 °F 93% 30.43 in 0.2 mi Calm Calm - N/A Fog Light Freezing Fog
4:43 AM 32.0 °F 28.7 °F 30.2 °F 93% 30.43 in 1.0 mi ESE 3.5 mph - N/A   Mist
4:45 AM 32.0 °F 28.7 °F 30.2 °F 93% 30.43 in 2.5 mi ESE 3.5 mph - N/A   Scattered Clouds
4:52 AM 32.0 °F - 30.2 °F 93% 30.43 in 10.0 mi Calm Calm - N/A   Scattered Clouds
4:56 AM 30.9 °F - 30.0 °F 96% 30.52 in 10.0 mi Calm Calm - N/A   Partly Cloudy
5:17 AM 30.2 °F 26.7 °F 28.4 °F 93% 30.44 in 1.2 mi North 3.5 mph - N/A   Partly Cloudy
5:22 AM 30.2 °F 24.3 °F 28.4 °F 93% 30.44 in 0.2 mi North 5.8 mph - N/A Fog Light Freezing Fog
5:41 AM 30.2 °F 25.4 °F 28.4 °F 93% 30.44 in 1.2 mi ENE 4.6 mph - N/A   Mostly Cloudy
5:43 AM 30.2 °F 25.4 °F 28.4 °F 93% 30.44 in 5.0 mi ENE 4.6 mph - N/A   Mostly Cloudy
5:52 AM 30.2 °F 25.4 °F 28.4 °F 93% 30.44 in 10.0 mi East 4.6 mph - N/A   Scattered Clouds
5:56 AM 30.9 °F 26.2 °F 28.9 °F 92% 30.52 in 10.0 mi ENE 4.6 mph - N/A   Partly Cloudy
6:22 AM 30.2 °F 25.4 °F 30.2 °F 100% 30.45 in 10.0 mi NE 4.6 mph - N/A   Mostly Cloudy
6:34 AM 30.2 °F 26.7 °F 28.4 °F 93% 30.45 in 10.0 mi NE 3.5 mph - N/A   Scattered Clouds
6:56 AM 32.0 °F 26.4 °F 28.9 °F 88% 30.53 in 10.0 mi NE 5.8 mph - N/A   Clear
7:31 AM 30.2 °F - 28.4 °F 93% 30.46 in 1.8 mi Calm Calm - N/A   Scattered Clouds
7:33 AM 30.2 °F - 28.4 °F 93% 30.46 in 0.5 mi Calm Calm - N/A Fog Light Freezing Fog
7:37 AM 30.2 °F - 28.4 °F 93% 30.46 in 0.2 mi Calm Calm - N/A Fog Light Freezing Fog
7:44 AM 30.2 °F 26.7 °F 28.4 °F 93% 30.46 in 0.2 mi SE 3.5 mph - N/A Fog Light Freezing Fog
7:56 AM 30.0 °F - 28.9 °F 96% 30.56 in 1.0 mi Calm Calm - N/A   Overcast
8:03 AM 32.0 °F - 30.2 °F 93% 30.47 in 2.0 mi Calm Calm - N/A   Overcast
8:10 AM 32.0 °F - 30.2 °F 93% 30.47 in 10.0 mi Calm Calm - N/A   Overcast
8:38 AM 33.8 °F 27.7 °F 30.2 °F 87% 30.48 in 10.0 mi NNE 6.9 mph - N/A   Overcast
8:56 AM 33.1 °F 27.7 °F 30.9 °F 92% 30.55 in 10.0 mi NE 5.8 mph - N/A   Overcast
9:56 AM 36.0 °F 33.3 °F 34.0 °F 93% 30.54 in 9.0 mi ENE 3.5 mph - N/A   Overcast
10:06 AM 35.6 °F 32.8 °F 33.8 °F 93% 30.48 in 6.0 mi Variable 3.5 mph - N/A   Overcast
10:13 AM 35.6 °F 32.8 °F 33.8 °F 93% 30.48 in 1.8 mi Variable 3.5 mph - N/A   Overcast
10:20 AM 35.6 °F 31.7 °F 33.8 °F 93% 30.48 in 1.0 mi Variable 4.6 mph - N/A   Overcast
10:33 AM 35.6 °F - 33.8 °F 93% 30.48 in 0.2 mi Calm Calm - N/A Fog Fog
10:56 AM 35.1 °F 32.2 °F 34.0 °F 96% 30.55 in 0.2 mi Variable 3.5 mph - N/A Fog Fog
11:04 AM 35.6 °F 30.7 °F 33.8 °F 93% 30.48 in 1.5 mi Variable 5.8 mph - N/A   Mostly Cloudy
11:06 AM 35.6 °F 29.9 °F 33.8 °F 93% 30.48 in 3.0 mi Variable 6.9 mph - N/A   Mostly Cloudy
11:21 AM 35.6 °F 31.7 °F 33.8 °F 93% 30.48 in 9.0 mi NNE 4.6 mph - N/A   Mostly Cloudy
11:33 AM 35.6 °F 31.7 °F 33.8 °F 93% 30.47 in 0.2 mi Variable 4.6 mph - N/A Fog Fog
11:42 AM 35.6 °F - 33.8 °F 93% 30.47 in 0.2 mi Calm Calm - N/A Fog Fog
11:56 AM 36.0 °F - 35.1 °F 97% 30.53 in 0.5 mi Calm Calm - N/A Fog Fog
12:03 PM 35.6 °F - 35.6 °F 100% 30.46 in 0.2 mi Calm Calm - N/A Fog Fog
12:12 PM 33.8 °F - 33.8 °F 100% 30.46 in 0.2 mi Calm Calm - N/A Fog Fog
12:56 PM 35.1 °F - 34.0 °F 96% 30.51 in 0.2 mi Calm Calm - N/A Fog Fog
1:56 PM 35.1 °F 32.2 °F 34.0 °F 96% 30.51 in 0.2 mi ENE 3.5 mph - N/A Fog Fog
2:51 PM 35.6 °F 30.7 °F 35.6 °F 100% 30.43 in 0.2 mi Variable 5.8 mph - N/A Fog Fog
2:56 PM 36.0 °F 32.1 °F 35.1 °F 97% 30.50 in 0.2 mi NNE 4.6 mph - N/A Fog Fog
3:56 PM 36.0 °F 33.3 °F 35.1 °F 97% 30.50 in 0.2 mi NNE 3.5 mph - N/A Fog Fog
4:56 PM 36.0 °F 31.1 °F 35.1 °F 97% 30.49 in 0.2 mi NNE 5.8 mph - N/A Fog Fog
5:56 PM 36.0 °F 32.1 °F 35.1 °F 97% 30.48 in 0.5 mi NE 4.6 mph - N/A Fog Fog
6:08 PM 35.6 °F 31.7 °F 35.6 °F 100% 30.41 in 0.2 mi NE 4.6 mph - N/A Fog Fog
6:56 PM 35.1 °F 32.2 °F 35.1 °F 100% 30.48 in 0.2 mi NNE 3.5 mph - N/A Fog Fog
7:39 PM 35.6 °F - 33.8 °F 93% 30.39 in 0.2 mi Calm Calm - N/A Fog Fog
7:56 PM 35.1 °F 32.2 °F 34.0 °F 96% 30.47 in 0.2 mi NE 3.5 mph - N/A Fog Fog
8:09 PM 33.8 °F 29.6 °F 33.8 °F 100% 30.39 in 1.0 mi ENE 4.6 mph - N/A   Mist
8:11 PM 33.8 °F 29.6 °F 33.8 °F 100% 30.39 in 2.5 mi East 4.6 mph - N/A   Mostly Cloudy
8:15 PM 33.8 °F 29.6 °F 33.8 °F 100% 30.39 in 10.0 mi East 4.6 mph - N/A   Scattered Clouds
8:56 PM 34.0 °F 28.8 °F 33.1 °F 96% 30.45 in 10.0 mi ESE 5.8 mph - N/A   Clear
9:56 PM 35.1 °F 31.0 °F 33.1 °F 92% 30.43 in 10.0 mi ESE 4.6 mph - N/A   Clear
10:25 PM 33.8 °F - 30.2 °F 87% 30.37 in 2.0 mi Calm Calm - N/A   Partly Cloudy
10:40 PM 33.8 °F - 32.0 °F 93% 30.37 in 10.0 mi Calm Calm - N/A   Clear
10:56 PM 35.1 °F 32.2 °F 33.1 °F 92% 30.43 in 10.0 mi East 3.5 mph - N/A   Clear
11:10 PM 33.8 °F 28.6 °F 32.0 °F 93% 30.37 in 1.8 mi North 5.8 mph - N/A   Partly Cloudy
11:12 PM 32.0 °F 25.6 °F 30.2 °F 93% 30.37 in 0.8 mi North 6.9 mph - N/A   Mist
11:21 PM 32.0 °F 26.4 °F 30.2 °F 93% 30.36 in 0.2 mi NNE 5.8 mph - N/A Fog Fog
11:56 PM 33.1 °F 27.7 °F 32.0 °F 96% 30.43 in 0.2 mi North 5.8 mph - N/A Fog Fog